Regional Weather Roundup
Issued by NWS

Home | Current Version | Previous Version | Text Only | Print | Product List | Glossary Off
Versions: 1 2 3 4 5 6 7 8 9 10 11 12 13 14 15 16 17 18 19 20 21 22 23 24 25 26 27 28 29 30 31 32 33 34 35 36 37 38 39 40 41 42 43 44 45 46 47 48 49 50

000
ASUS43 KDMX 220701
RWRIA

WEATHER ROUNDUP FOR IOWA
NATIONAL WEATHER SERVICE DES MOINES IA
100 AM CST MON JAN 22 2018

NOTE: "FAIR" INDICATES FEW OR NO CLOUDS BELOW 12,000 FEET WITH NO
SIGNIFICANT WEATHER AND/OR OBSTRUCTIONS TO VISIBILITY.

* - THESE STATIONS ARE NOT NWS STATIONS...THUS NOT UNDER NWS
QUALITY CONTROL.  THEY ALSO DO NOT REPORT WEATHER SUCH
AS PRECIPITATION OR FOG.

IAZ001>003-012>014-020>022-031>034-043>046-220800-
   NORTHWEST IOWA

CITY           SKY/WX    TMP DP  RH WIND       PRES   REMARKS
CARROLL *      RAIN      36  36 100 NE18      29.61F WCI  25
CHEROKEE *     FLURRIES  35  32  90 NE15G28   29.71F WCI  25
DENISON *      LGT RAIN  36  36 100 NE17G26   29.60F WCI  25
LE MARS *      FLURRIES  36  30  80 NE18      29.73S WCI  25
ORANGE CITY *  CLOUDY    36  34  93 NE13G23   29.72F WCI  27
SHELDON *      CLOUDY    34  30  86 NE21G28   29.73F WCI  22
SIOUX CITY     LGT SNOW  34  31  88 N17       29.70F FOG     WCI  23
SPENCER        MIX PCPN  36  29  75 NE22      29.74F WCI  25
STORM LAKE *   CLOUDY    32  32 100 NE29G36   29.65F FOG     WCI  18
$$

IAZ055>058-069>071-079>083-090>094-220800-
   SOUTHWEST IOWA

CITY           SKY/WX    TMP DP  RH WIND       PRES   REMARKS
ATLANTIC *     CLOUDY    37  37 100 NE15G21   29.55F FOG     WCI  28
AUDUBON *      DRIZZLE   36  34  93 NE15G22   29.57F WCI  26
CLARINDA *     CLOUDY    41  41 100 N8          N/A
COUNCIL BLFS * CLOUDY    36  36 100 MISG      29.62R
CRESTON *      CLOUDY    39  39 100 NE16G23   29.52F WCI  30
HARLAN  *      CLOUDY    36  36 100 NE15G22   29.59F WCI  26
LAMONI         LGT RAIN  43  42  97 NE12      29.50F FOG
RED OAK *      CLOUDY    37  37 100 NE14G20   29.53F FOG     WCI  29
SHENANDOAH *   LGT RAIN  39  39 100 NW7       29.56F VSB 1   WCI  34
$$

IAZ047>049-059>061-072>074-084-220800-
   CENTRAL IOWA

CITY           SKY/WX    TMP DP  RH WIND       PRES   REMARKS
AMES           HVY RAIN  38  38 100 NE12      29.62S FOG     WCI  30
ANKENY *       RAIN      37  37 100 N10G16    29.60F WCI  30
BOONE *        RAIN      37  37 100 NE15G21   29.60F WCI  28
CHARITON *     CLOUDY    41  41 100 N5G12     29.55F FOG
DES MOINES     RAIN      39  38  96 NE14      29.57F FOG     WCI  31
GRINNELL*      DRIZZLE   38  37  98 NE17      29.60F WCI  28
KNOXVILLE *    FOG       43  43 100 VRB5G14   29.53F VSB 1/2
MARSHALLTOWN   LGT RAIN  37  37 100 NE16G25   29.61F FOG     WCI  28
NEWTON *       CLOUDY    39  39 100 NE20      29.56F FOG     WCI  30
PELLA *        LGT RAIN  43  42  98 E9        29.56F
$$

IAZ004>006-015-016-023>025-035-036-220800-
   NORTH CENTRAL IOWA

CITY           SKY/WX    TMP DP  RH WIND       PRES   REMARKS
ALGONA *       CLOUDY    34 N/A N/A NE18      29.72F WCI  23
CLARION *      CLOUDY    36  36 100 NE20      29.66F FOG     WCI  25
ESTHERVILLE    CLOUDY    33  30  88 NE22G28   29.75S WCI  21
FORT DODGE *   LGT RAIN  36  35  96 NE15      29.67F FOG     WCI  27
MASON CITY     CLOUDY    36  32  85 NE17      29.73F WCI  26
FOREST CITY *  CLOUDY    36  32  87 NE15G21   29.73F WCI  26
WEBSTER CITY * RAIN      37  37 100 NE20G29   29.61F WCI  27
IOWA FALLS *   LGT SNOW  37  37  97 NE16G23   29.67F WCI  28
$$

IAZ007>011-017>019-026>030-037>042-050>054-066-220800-
   NORTHEAST IOWA

CITY           SKY/WX    TMP DP  RH WIND       PRES   REMARKS
CEDAR RAPIDS   TSTM      41  40  96 NE14      29.65F FOG
CHARLES CITY * MIX PCPN  37  37 100 NE17      29.72F WCI  28
CLINTON *      LGT RAIN  41  40  96 E14       29.69F VSB 1/2
DECORAH *      CLOUDY    37  37 100 NE12      29.73F FOG     WCI  30
DUBUQUE        MIX PCPN  36  35  96 NE16      29.70F VSB 1/4 WCI  26
MONTICELLO *   LGT RAIN  39  39 100 E12G18    29.68F WCI  32
OELWEIN *      CLOUDY    37  37 100 E16G24    29.69F FOG     WCI  28
WATERLOO       RAIN      37  36  96 E13       29.68F FOG     WCI  29
$$

IAZ064-065-067-068-078-220800-
   EAST CENTRAL IOWA

CITY           SKY/WX    TMP DP  RH WIND       PRES   REMARKS
DAVENPORT      FOG       45  43  93 E10       29.68F VSB 1/4
IOWA CITY      CLOUDY    43  41  93 NE12      29.65F FOG
MT. PLEASANT * CLOUDY    50  50 100 SE10G16   29.60F
MUSCATINE *    LGT RAIN  52  52 100 SE7       29.64F
QUAD CITIES    CLOUDY    51  51 100 SE9       29.66F FOG
$$

IAZ062-063-075>077-085>089-095>099-220800-
   SOUTHEAST IOWA

CITY           SKY/WX    TMP DP  RH WIND       PRES   REMARKS
BURLINGTON     LGT RAIN  53  51  93 S17G24    29.62F
FAIRFIELD *    CLOUDY    52  50  93 S8        29.58F
FORT MADISON * LGT RAIN  54  52  94 S17       29.62F
KEOKUK *       CLOUDY    54  52  94 SE10G17   29.62F
OSKALOOSA *    FOG       42  42  99 E12       29.56F VSB 1/4
OTTUMWA        FOG       46  46 100 E12       29.55F VSB 3/4
WASHINGTON *   CLOUDY    46  46 100 E14       29.60F FOG
$$

ABBREVIATIONS USED IN REMARKS
   TC - TEMPERATURES IN CELSIUS
  WCI - WIND CHILL INDEX
   HX - HEAT INDEX
  VSB - VISIBILITY
$$





USA.gov is the U.S. government's official web portal to all federal, state and local government web resources and services.